18/6/19
Time         Wind Dir  Wind Gust   Humidity       Temp   Tot Rain Wind Chill Heat Index  Dew Point   Barom SL Temp Out H Temp Out L  DailyRain   HourRain   24HrRain   RainRate   Wind Run   Deg Heat   Deg Cool  MonthRain
                          km/hr          %         C         mm         C         C         C         mb         C         C         mm         mm         mm      mm/hr         km         C         C         mm
0:00              223        8.0         76       15.8      122.8       15.8       17.8       11.6     1014.0       15.8       15.8        0.0        0.0        0.0       0.00      120.5       0.70       2.38        0.0
0:02              223        3.2         76       15.8      122.8       15.8       17.8       11.6     1014.0       15.8       15.8        0.0        0.0        0.0       0.00        0.1       0.02       0.00        0.0
0:04              223        1.6         76       15.7      122.8       15.7       17.8       11.5     1014.1       15.8       15.7        0.0        0.0        0.0       0.00        0.2       0.02       0.00        0.0
0:06              223        1.6         76       15.7      122.8       15.7       17.8       11.5     1014.1       15.8       15.7        0.0        0.0        0.0       0.00        0.2       0.02       0.00        0.0
0:07              223        4.8         77       15.7      122.8       15.7       17.8       11.7     1014.1       15.8       15.7        0.0        0.0        0.0       0.00        0.3       0.02       0.00        0.0
0:10              224        6.4         77       15.6      122.8       15.6       17.7       11.6     1014.0       15.8       15.6        0.0        0.0        0.0       0.00        0.5       0.02       0.00        0.0
0:12              225        6.4         77       15.6      122.8       15.6       17.7       11.6     1014.1       15.8       15.6        0.0        0.0        0.0       0.00        0.6       0.02       0.00        0.0
0:14              227        4.8         77       15.6      122.8       15.6       17.7       11.5     1014.1       15.8       15.6        0.0        0.0        0.0       0.00        0.8       0.02       0.00        0.0
0:16              229        8.0         77       15.6      122.8       15.6       17.7       11.5     1014.1       15.8       15.6        0.0        0.0        0.0       0.00        0.9       0.05       0.00        0.0
0:18              232        9.7         77       15.5      122.8       15.5       17.6       11.5     1014.1       15.8       15.5        0.0        0.0        0.0       0.00        1.0       0.05       0.00        0.0
0:20              232        8.0         77       15.5      122.8       15.5       17.6       11.5     1014.0       15.8       15.5        0.0        0.0        0.0       0.00        1.2       0.05       0.00        0.0
0:22              232        8.0         77       15.4      122.8       15.4       17.6       11.4     1014.0       15.8       15.4        0.0        0.0        0.0       0.00        1.3       0.05       0.00        0.0
0:24              234        3.2         77       15.4      122.8       15.4       17.6       11.4     1014.1       15.8       15.4        0.0        0.0        0.0       0.00        1.5       0.05       0.00        0.0
0:26              234        6.4         77       15.4      122.8       15.4       17.5       11.4     1014.1       15.8       15.4        0.0        0.0        0.0       0.00        1.6       0.05       0.00        0.0
0:28              234        4.8         78       15.4      122.8       15.4       17.6       11.6     1014.0       15.8       15.4        0.0        0.0        0.0       0.00        1.8       0.05       0.00        0.0
0:30              234        6.4         78       15.4      122.8       15.4       17.6       11.6     1014.1       15.8       15.4        0.0        0.0        0.0       0.00        1.9       0.05       0.00        0.0
0:32              235        4.8         78       15.4      122.8       15.4       17.6       11.6     1014.0       15.8       15.3        0.0        0.0        0.0       0.00        2.0       0.08       0.00        0.0
0:34              236        4.8         78       15.3      122.8       15.3       17.5       11.5     1014.1       15.8       15.3        0.0        0.0        0.0       0.00        2.2       0.08       0.00        0.0
0:36              238        4.8         78       15.3      122.8       15.3       17.5       11.5     1014.1       15.8       15.3        0.0        0.0        0.0       0.00        2.3       0.08       0.00        0.0
0:38              238        4.8         79       15.3      122.8       15.3       17.6       11.7     1014.1       15.8       15.3        0.0        0.0        0.0       0.00        2.5       0.08       0.00        0.0
0:40              239        4.8         79       15.3      122.8       15.3       17.6       11.7     1014.1       15.8       15.3        0.0        0.0        0.0       0.00        2.6       0.08       0.00        0.0
0:42              239        3.2         79       15.3      122.8       15.3       17.6       11.7     1014.1       15.8       15.3        0.0        0.0        0.0       0.00        2.7       0.08       0.00        0.0
0:44              239        3.2         79       15.3      122.8       15.3       17.6       11.7     1014.1       15.8       15.3        0.0        0.0        0.0       0.00        2.8       0.08       0.00        0.0
0:46              239        6.4         79       15.2      122.8       15.2       17.5       11.6     1014.0       15.8       15.2        0.0        0.0        0.0       0.00        2.9       0.10       0.00        0.0
0:48              239        6.4         79       15.2      122.8       15.2       17.5       11.6     1014.1       15.8       15.2        0.0        0.0        0.0       0.00        3.0       0.10       0.00        0.0
0:50              239        6.4         79       15.2      122.8       15.2       17.5       11.6     1014.1       15.8       15.2        0.0        0.0        0.0       0.00        3.1       0.10       0.00        0.0
0:52              239        4.8         79       15.2      122.8       15.2       17.5       11.6     1014.1       15.8       15.2        0.0        0.0        0.0       0.00        3.2       0.10       0.00        0.0
0:54              239        4.8         80       15.2      122.8       15.2       17.5       11.7     1014.1       15.8       15.2        0.0        0.0        0.0       0.00        3.3       0.10       0.00        0.0
0:56              239        6.4         80       15.1      122.8       15.1       17.5       11.7     1014.1       15.8       15.1        0.0        0.0        0.0       0.00        3.4       0.10       0.00        0.0
0:57              239        3.2         80       15.1      122.8       15.1       17.5       11.7     1014.0       15.8       15.1        0.0        0.0        0.0       0.00        3.5       0.10       0.00        0.0
1:00              239        3.2         80       15.1      122.8       15.1       17.5       11.7     1014.1       15.8       15.1        0.0        0.0        0.0       0.00        3.5       0.10       0.00        0.0
1:02              239        4.8         80       15.1      122.8       15.1       17.5       11.7     1014.0       15.8       15.1        0.0        0.0        0.0       0.00        3.6       0.13       0.00        0.0
1:04              239        3.2         80       15.1      122.8       15.1       17.5       11.7     1014.1       15.8       15.1        0.0        0.0        0.0       0.00        3.7       0.13       0.00        0.0
1:06              238        1.6         81       15.1      122.8       15.1       17.5       11.8     1014.0       15.8       15.1        0.0        0.0        0.0       0.00        3.7       0.13       0.00        0.0
1:08              238        3.2         81       15.1      122.8       15.1       17.5       11.8     1014.0       15.8       15.1        0.0        0.0        0.0       0.00        3.8       0.13       0.00        0.0
1:10              238        6.4         81       15.0      122.8       15.0       17.4       11.8     1014.0       15.8       15.0        0.0        0.0        0.0       0.00        3.9       0.13       0.00        0.0
1:12              238        4.8         81       15.0      122.8       15.0       17.4       11.8     1014.0       15.8       15.0        0.0        0.0        0.0       0.00        4.0       0.13       0.00        0.0
1:14              238        3.2         81       15.0      122.8       15.0       17.4       11.8     1014.0       15.8       15.0        0.0        0.0        0.0       0.00        4.2       0.13       0.00        0.0
1:16              239        4.8         81       14.9      122.8       14.9       17.4       11.7     1014.0       15.8       14.9        0.0        0.0        0.0       0.00        4.3       0.17       0.00        0.0
1:17              238        3.2         81       14.9      122.8       14.9       17.3       11.7     1014.0       15.8       14.9        0.0        0.0        0.0       0.00        4.4       0.17       0.00        0.0
1:19              238        3.2         81       14.9      122.8       14.9       17.3       11.7     1014.0       15.8       14.9        0.0        0.0        0.0       0.00        4.5       0.17       0.00        0.0
1:22              238        3.2         81       14.9      122.8       14.9       17.3       11.7     1014.1       15.8       14.9        0.0        0.0        0.0       0.00        4.6       0.17       0.00        0.0
1:24              238        4.8         82       14.8      122.8       14.8       17.3       11.8     1014.0       15.8       14.8        0.0        0.0        0.0       0.00        4.7       0.17       0.00        0.0
1:26              238        4.8         82       14.8      122.8       14.8       17.3       11.8     1014.0       15.8       14.8        0.0        0.0        0.0       0.00        4.8       0.17       0.00        0.0
1:28              238        1.6         82       14.8      122.8       14.8       17.3       11.8     1014.1       15.8       14.8        0.0        0.0        0.0       0.00        4.9       0.17       0.00        0.0
1:30              238        4.8         82       14.8      122.8       14.8       17.3       11.7     1014.0       15.8       14.8        0.0        0.0        0.0       0.00        4.9       0.17       0.00        0.0
1:32              238        1.6         83       14.8      122.8       14.8       17.4       11.9     1014.1       15.8       14.8        0.0        0.0        0.0       0.00        5.1       0.20       0.00        0.0
1:34              238        6.4         83       14.8      122.8       14.8       17.4       11.9     1014.0       15.8       14.8        0.0        0.0        0.0       0.00        5.2       0.20       0.00        0.0
1:35              238        0.0         83       14.7      122.8       14.7       17.3       11.9     1014.0       15.8       14.7        0.0        0.0        0.0       0.00        5.2       0.20       0.00        0.0
1:38              238        1.6         83       14.7      122.8       14.7       17.3       11.9     1013.9       15.8       14.7        0.0        0.0        0.0       0.00        5.2       0.20       0.00        0.0
1:40              238        1.6         83       14.7      122.8       14.7       17.3       11.9     1014.0       15.8       14.7        0.0        0.0        0.0       0.00        5.3       0.20       0.00        0.0
1:42              238        1.6         83       14.7      122.8       14.7       17.3       11.9     1013.9       15.8       14.7        0.0        0.0        0.0       0.00        5.4       0.20       0.00        0.0
1:44              238        1.6         83       14.7      122.8       14.7       17.3       11.9     1014.1       15.8       14.7        0.0        0.0        0.0       0.00        5.4       0.20       0.00        0.0
1:46              238        1.6         83       14.7      122.8       14.7       17.3       11.9     1013.9       15.8       14.7        0.0        0.0        0.0       0.00        5.5       0.23       0.00        0.0
1:48              238        1.6         83       14.7      122.8       14.7       17.3       11.9     1013.9       15.8       14.7        0.0        0.0        0.0       0.00        5.5       0.23       0.00        0.0
1:50              238        1.6         83       14.7      122.8       14.7       17.3       11.9     1014.0       15.8       14.7        0.0        0.0        0.0       0.00        5.6       0.23       0.00        0.0
1:52              238        1.6         83       14.7      122.8       14.7       17.3       11.9     1013.9       15.8       14.7        0.0        0.0        0.0       0.00        5.6       0.23       0.00        0.0
1:54              238        1.6         83       14.7      122.8       14.7       17.3       11.9     1013.9       15.8       14.7        0.0        0.0        0.0       0.00        5.7       0.23       0.00        0.0
1:56              238        1.6         83       14.7      122.8       14.7       17.3       11.9     1013.9       15.8       14.7        0.0        0.0        0.0       0.00        5.7       0.23       0.00        0.0
1:58              238        1.6         83       14.7      122.8       14.7       17.3       11.9     1013.9       15.8       14.7        0.0        0.0        0.0       0.00        5.8       0.23       0.00        0.0
2:00              238        1.6         83       14.7      122.8       14.7       17.3       11.9     1013.9       15.8       14.7        0.0        0.0        0.0       0.00        5.8       0.23       0.00        0.0
2:02              238        1.6         83       14.7      122.8       14.7       17.3       11.9     1013.9       15.8       14.7        0.0        0.0        0.0       0.00        5.9       0.27       0.00        0.0
2:04              238        1.6         83       14.7      122.8       14.7       17.3       11.9     1013.9       15.8       14.7        0.0        0.0        0.0       0.00        5.9       0.27       0.00        0.0
2:06              238        1.6         83       14.7      122.8       14.7       17.3       11.9     1013.9       15.8       14.7        0.0        0.0        0.0       0.00        6.0       0.27       0.00        0.0
2:08              238        3.2         85       14.6      122.8       14.6       17.3       12.1     1013.9       15.8       14.5        0.0        0.0        0.0       0.00        6.0       0.27       0.00        0.0
2:10              238        1.6         85       14.5      122.8       14.5       17.2       12.0     1013.8       15.8       14.5        0.0        0.0        0.0       0.00        6.1       0.27       0.00        0.0
2:12              238        3.2         85       14.5      122.8       14.5       17.2       12.0     1013.9       15.8       14.5        0.0        0.0        0.0       0.00        6.1       0.27       0.00        0.0
2:14              238        1.6         86       14.5      122.8       14.5       17.3       12.2     1013.9       15.8       14.5        0.0        0.0        0.0       0.00        6.2       0.27       0.00        0.0
2:16              238        1.6         86       14.6      122.8       14.6       17.4       12.2     1013.9       15.8       14.5        0.0        0.0        0.0       0.00        6.2       0.30       0.00        0.0
2:18              238        4.8         86       14.5      122.8       14.5       17.3       12.2     1013.8       15.8       14.5        0.0        0.0        0.0       0.00        6.2       0.30       0.00        0.0
2:19              238        3.2         86       14.5      122.8       14.5       17.3       12.2     1013.8       15.8       14.5        0.0        0.0        0.0       0.00        6.3       0.30       0.00        0.0
2:22              238        3.2         86       14.5      122.8       14.5       17.3       12.2     1013.7       15.8       14.5        0.0        0.0        0.0       0.00        6.4       0.30       0.00        0.0
2:24              238        0.0         86       14.5      122.8       14.5       17.3       12.2     1013.8       15.8       14.5        0.0        0.0        0.0       0.00        6.4       0.30       0.00        0.0
2:25              238        3.2         86       14.5      122.8       14.5       17.3       12.2     1013.7       15.8       14.5        0.0        0.0        0.0       0.00        6.5       0.30       0.00        0.0
2:27              238        4.8         86       14.5      122.8       14.5       17.3       12.2     1013.7       15.8       14.5        0.0        0.0        0.0       0.00        6.5       0.30       0.00        0.0
2:30              238        4.8         87       14.5      122.8       14.5       17.4       12.4     1013.8       15.8       14.5        0.0        0.0        0.0       0.00        6.6       0.30       0.00        0.0
2:32              238        1.6         87       14.5      122.8       14.5       17.4       12.4     1013.8       15.8       14.5        0.0        0.0        0.0       0.00        6.6       0.34       0.00        0.0
2:34              238        1.6         87       14.5      122.8       14.5       17.4       12.4     1013.8       15.8       14.5        0.0        0.0        0.0       0.00        6.7       0.34       0.00        0.0
2:36              238        3.2         87       14.5      122.8       14.5       17.4       12.4     1013.7       15.8       14.5        0.0        0.0        0.0       0.00        6.7       0.34       0.00        0.0
2:38              238        1.6         87       14.6      122.8       14.6       17.4       12.4     1013.7       15.8       14.5        0.0        0.0        0.0       0.00        6.7       0.34       0.00        0.0
2:39              238        0.0         87       14.5      122.8       14.5       17.4       12.4     1013.7       15.8       14.5        0.0        0.0        0.0       0.00        6.7       0.34       0.00        0.0
2:42              238        0.0         87       14.5      122.8       14.5       17.4       12.4     1013.7       15.8       14.5        0.0        0.0        0.0       0.00        6.8       0.34       0.00        0.0
2:44              238        1.6         87       14.5      122.8       14.5       17.4       12.4     1013.8       15.8       14.5        0.0        0.0        0.0       0.00        6.8       0.34       0.00        0.0
2:46              238        1.6         87       14.5      122.8       14.5       17.4       12.4     1013.8       15.8       14.5        0.0        0.0        0.0       0.00        6.8       0.38       0.00        0.0
2:48              238        1.6         87       14.5      122.8       14.5       17.4       12.4     1013.8       15.8       14.5        0.0        0.0        0.0       0.00        6.9       0.38       0.00        0.0
2:50              238        1.6         87       14.5      122.8       14.5       17.4       12.4     1013.7       15.8       14.5        0.0        0.0        0.0       0.00        7.0       0.38       0.00        0.0
2:52              238        1.6         87       14.5      122.8       14.5       17.4       12.4     1013.8       15.8       14.5        0.0        0.0        0.0       0.00        7.0       0.38       0.00        0.0
2:54              238        1.6         87       14.5      122.8       14.5       17.4       12.4     1013.9       15.8       14.5        0.0        0.0        0.0       0.00        7.1       0.38       0.00        0.0
2:56              238        1.6         87       14.5      122.8       14.5       17.4       12.4     1013.8       15.8       14.5        0.0        0.0        0.0       0.00        7.1       0.38       0.00        0.0
2:58              238        1.6         87       14.5      122.8       14.5       17.4       12.4     1013.9       15.8       14.5        0.0        0.0        0.0       0.00        7.2       0.38       0.00        0.0
3:00              238        1.6         87       14.5      122.8       14.5       17.4       12.4     1013.9       15.8       14.5        0.0        0.0        0.0       0.00        7.2       0.38       0.00        0.0
3:02              238        1.6         87       14.5      122.8       14.5       17.4       12.4     1013.9       15.8       14.5        0.0        0.0        0.0       0.00        7.3       0.41       0.00        0.0
3:04              238        1.6         87       14.5      122.8       14.5       17.4       12.4     1013.8       15.8       14.5        0.0        0.0        0.0       0.00        7.3       0.41       0.00        0.0
3:06              238        1.6         87       14.5      122.8       14.5       17.4       12.4     1013.8       15.8       14.5        0.0        0.0        0.0       0.00        7.4       0.41       0.00        0.0
3:08              238        1.6         87       14.5      122.8       14.5       17.4       12.4     1013.8       15.8       14.5        0.0        0.0        0.0       0.00        7.4       0.41       0.00        0.0
3:09              238        1.6         88       14.6      122.8       14.6       17.6       12.6     1013.8       15.8       14.5        0.0        0.0        0.0       0.00        7.5       0.41       0.00        0.0
3:12              238        1.6         88       14.7      122.8       14.7       17.6       12.7     1013.8       15.8       14.5        0.0        0.0        0.0       0.00        7.5       0.41       0.00        0.0
3:14              238        1.6         88       14.7      122.8       14.7       17.6       12.7     1013.8       15.8       14.5        0.0        0.0        0.0       0.00        7.5       0.41       0.00        0.0
3:16              238        0.0         88       14.6      122.8       14.6       17.6       12.6     1013.8       15.8       14.5        0.0        0.0        0.0       0.00        7.5       0.45       0.00        0.0
3:18              238        1.6         88       14.7      122.8       14.7       17.6       12.7     1013.9       15.8       14.5        0.0        0.0        0.0       0.00        7.6       0.45       0.00        0.0
3:20              238        3.2         88       14.7      122.8       14.7       17.6       12.7     1013.9       15.8       14.5        0.0        0.0        0.0       0.00        7.6       0.45       0.00        0.0
3:22              238        3.2         88       14.7      122.8       14.7       17.6       12.7     1013.9       15.8       14.5        0.0        0.0        0.0       0.00        7.7       0.45       0.00        0.0
3:24              238        1.6         88       14.7      122.8       14.7       17.6       12.7     1013.9       15.8       14.5        0.0        0.0        0.0       0.00        7.7       0.45       0.00        0.0
3:26              238        3.2         88       14.7      122.8       14.7       17.6       12.7     1013.9       15.8       14.5        0.0        0.0        0.0       0.00        7.8       0.45       0.00        0.0
3:28              238        1.6         88       14.7      122.8       14.7       17.6       12.7     1013.9       15.8       14.5        0.0        0.0        0.0       0.00        7.8       0.45       0.00        0.0
3:30              238        1.6         88       14.7      122.8       14.7       17.6       12.7     1013.9       15.8       14.5        0.0        0.0        0.0       0.00        7.9       0.45       0.00        0.0
3:32              238        1.6         88       14.7      122.8       14.7       17.6       12.7     1013.9       15.8       14.5        0.0        0.0        0.0       0.00        7.9       0.48       0.00        0.0
3:33              238        1.6         88       14.7      122.8       14.7       17.6       12.7     1013.9       15.8       14.5        0.0        0.0        0.0       0.00        8.0       0.48       0.00        0.0
3:36              238        3.2         89       14.7      122.8       14.7       17.8       12.9     1013.9       15.8       14.5        0.0        0.0        0.0       0.00        8.0       0.48       0.00        0.0
3:37              238        3.2         89       14.7      122.8       14.7       17.8       12.9     1013.9       15.8       14.5        0.0        0.0        0.0       0.00        8.1       0.48       0.00        0.0
3:40              238        3.2         88       14.7      122.8       14.7       17.7       12.8     1013.9       15.8       14.5        0.0        0.0        0.0       0.00        8.1       0.48       0.00        0.0
3:42              238        3.2         89       14.7      122.8       14.7       17.8       12.9     1013.9       15.8       14.5        0.0        0.0        0.0       0.00        8.2       0.48       0.00        0.0
3:44              238        3.2         89       14.7      122.8       14.7       17.8       12.9     1013.9       15.8       14.5        0.0        0.0        0.0       0.00        8.3       0.48       0.00        0.0
3:46              238        1.6         89       14.7      122.8       14.7       17.8       12.9     1013.9       15.8       14.5        0.0        0.0        0.0       0.00        8.3       0.52       0.00        0.0
3:48              238        0.0         89       14.7      122.8       14.7       17.8       12.9     1013.9       15.8       14.5        0.0        0.0        0.0       0.00        8.3       0.52       0.00        0.0
3:50              238        0.0         89       14.8      122.8       14.8       17.8       13.0     1013.9       15.8       14.5        0.0        0.0        0.0       0.00        8.3       0.52       0.00        0.0
3:52              238        0.0         89       14.8      122.8       14.8       17.8       13.0     1014.0       15.8       14.5        0.0        0.0        0.0       0.00        8.3       0.52       0.00        0.0
3:53              238        0.0         89       14.8      122.8       14.8       17.8       13.0     1014.0       15.8       14.5        0.0        0.0        0.0       0.00        8.3       0.52       0.00        0.0
3:56              238        3.2         89       14.8      122.8       14.8       17.8       13.0     1014.0       15.8       14.5        0.0        0.0        0.0       0.00        8.4       0.52       0.00        0.0
3:58              238        1.6         89       14.8      122.8       14.8       17.9       13.0     1014.1       15.8       14.5        0.0        0.0        0.0       0.00        8.4       0.52       0.00        0.0
4:00              238        4.8         89       14.8      122.8       14.8       17.9       13.0     1014.1       15.8       14.5        0.0        0.0        0.0       0.00        8.5       0.52       0.00        0.0
4:02              238        1.6         89       14.8      122.8       14.8       17.9       13.0     1014.2       15.8       14.5        0.0        0.0        0.0       0.00        8.6       0.55       0.00        0.0
4:04              238        4.8         89       14.8      122.8       14.8       17.9       13.0     1014.2       15.8       14.5        0.0        0.0        0.0       0.00        8.7       0.55       0.00        0.0
4:06              238        3.2         89       14.9      122.8       14.9       17.9       13.1     1014.1       15.8       14.5        0.0        0.0        0.0       0.00        8.7       0.55       0.00        0.0
4:08              238        4.8         89       14.9      122.8       14.9       17.9       13.1     1014.1       15.8       14.5        0.0        0.0        0.0       0.00        8.8       0.55       0.00        0.0
4:10              238        3.2         89       14.9      122.8       14.9       17.9       13.1     1014.1       15.8       14.5        0.0        0.0        0.0       0.00        8.9       0.55       0.00        0.0
4:12              238        3.2         89       14.9      122.8       14.9       17.9       13.1     1014.1       15.8       14.5        0.0        0.0        0.0       0.00        8.9       0.55       0.00        0.0
4:14              238        3.2         89       14.9      122.8       14.9       17.9       13.1     1014.2       15.8       14.5        0.0        0.0        0.0       0.00        9.0       0.55       0.00        0.0
4:16              238        3.2         89       14.9      122.8       14.9       17.9       13.1     1014.2       15.8       14.5        0.0        0.0        0.0       0.00        9.1       0.58       0.00        0.0
4:18              238        6.4         89       14.9      122.8       14.9       17.9       13.1     1014.2       15.8       14.5        0.0        0.0        0.0       0.00        9.2       0.58       0.00        0.0
4:19              231        6.4         89       14.9      122.8       14.9       17.9       13.1     1014.2       15.8       14.5        0.0        0.0        0.0       0.00        9.4       0.58       0.00        0.0
4:22              228        3.2         89       14.9      122.8       14.9       17.9       13.1     1014.2       15.8       14.5        0.0        0.0        0.0       0.00        9.5       0.58       0.00        0.0
4:23              225        3.2         89       14.9      122.8       14.9       18.0       13.1     1014.2       15.8       14.5        0.0        0.0        0.0       0.00        9.6       0.58       0.00        0.0
4:26              222        4.8         89       14.9      122.8       14.9       18.0       13.1     1014.2       15.8       14.5        0.0        0.0        0.0       0.00        9.7       0.58       0.00        0.0
4:28              222        3.2         89       14.9      122.8       14.9       18.0       13.1     1014.1       15.8       14.5        0.0        0.0        0.0       0.00        9.8       0.58       0.00        0.0
4:30              221        4.8         89       14.9      122.8       14.9       17.9       13.1     1014.1       15.8       14.5        0.0        0.0        0.0       0.00        9.9       0.58       0.00        0.0
4:31              218        4.8         89       14.9      122.8       14.9       18.0       13.1     1014.2       15.8       14.5        0.0        0.0        0.0       0.00       10.0       0.62       0.00        0.0
4:34              218        4.8         89       14.9      122.8       14.9       17.9       13.1     1014.2       15.8       14.5        0.0        0.0        0.0       0.00       10.2       0.62       0.00        0.0
4:36              217        4.8         89       14.9      122.8       14.9       17.9       13.1     1014.2       15.8       14.5        0.0        0.0        0.0       0.00       10.3       0.62       0.00        0.0
4:38              217        6.4         89       14.9      122.8       14.9       17.9       13.1     1014.2       15.8       14.5        0.0        0.0        0.0       0.00       10.4       0.62       0.00        0.0
4:40              211        4.8         90       14.9      122.8       14.9       18.0       13.3     1014.1       15.8       14.5        0.0        0.0        0.0       0.00       10.5       0.62       0.00        0.0
4:42              211        4.8         90       14.9      122.8       14.9       18.0       13.3     1014.2       15.8       14.5        0.0        0.0        0.0       0.00       10.6       0.62       0.00        0.0
4:44              210        4.8         90       14.9      122.8       14.9       18.0       13.3     1014.3       15.8       14.5        0.0        0.0        0.0       0.00       10.7       0.62       0.00        0.0
4:46              206        6.4         90       14.9      122.8       14.9       18.0       13.3     1014.2       15.8       14.5        0.0        0.0        0.0       0.00       10.9       0.65       0.00        0.0
4:48              201        6.4         90       14.9      122.8       14.9       18.0       13.3     1014.3       15.8       14.5        0.0        0.0        0.0       0.00       11.0       0.65       0.00        0.0
4:50              200        4.8         90       14.9      122.8       14.9       18.0       13.3     1014.3       15.8       14.5        0.0        0.0        0.0       0.00       11.1       0.65       0.00        0.0
4:52              196        4.8         90       14.9      122.8       14.9       18.0       13.3     1014.3       15.8       14.5        0.0        0.0        0.0       0.00       11.3       0.65       0.00        0.0
4:54              192        6.4         90       14.9      122.8       14.9       18.0       13.3     1014.3       15.8       14.5        0.0        0.0        0.0       0.00       11.4       0.65       0.00        0.0
4:55              192        3.2         90       14.9      122.8       14.9       18.0       13.3     1014.3       15.8       14.5        0.0        0.0        0.0       0.00       11.6       0.65       0.00        0.0
4:58              192        4.8         90       14.9      122.8       14.9       18.0       13.3     1014.4       15.8       14.5        0.0        0.0        0.0       0.00       11.7       0.65       0.00        0.0
5:00              192        3.2         90       14.9      122.8       14.9       18.0       13.3     1014.3       15.8       14.5        0.0        0.0        0.0       0.00       11.8       0.65       0.00        0.0
5:02              192        6.4         90       14.9      122.8       14.9       18.0       13.3     1014.3       15.8       14.5        0.0        0.0        0.0       0.00       11.9       0.68       0.00        0.0
5:03              191        6.4         90       14.9      122.8       14.9       18.0       13.3     1014.4       15.8       14.5        0.0        0.0        0.0       0.00       12.1       0.68       0.00        0.0
5:06              190        4.8         90       14.9      122.8       14.9       18.0       13.3     1014.3       15.8       14.5        0.0        0.0        0.0       0.00       12.2       0.68       0.00        0.0
5:08              190        1.6         90       14.8      122.8       14.8       18.0       13.2     1014.4       15.8       14.5        0.0        0.0        0.0       0.00       12.3       0.68       0.00        0.0
5:10              190        4.8         90       14.8      122.8       14.8       18.0       13.2     1014.4       15.8       14.5        0.0        0.0        0.0       0.00       12.4       0.68       0.00        0.0
5:12              190        6.4         90       14.8      122.8       14.8       18.0       13.2     1014.4       15.8       14.5        0.0        0.0        0.0       0.00       12.5       0.68       0.00        0.0
5:14              189        6.4         91       14.8      122.8       14.8       18.0       13.4     1014.4       15.8       14.5        0.0        0.0        0.0       0.00       12.7       0.68       0.00        0.0
5:15              188        8.0         91       14.8      122.8       13.8       18.0       13.4     1014.5       15.8       14.5        0.0        0.0        0.0       0.00       12.8       0.71       0.00        0.0
5:18              186        6.4         91       14.8      122.8       14.8       18.0       13.4     1014.4       15.8       14.5        0.0        0.0        0.0       0.00       13.0       0.71       0.00        0.0
5:20              186        4.8         91       14.8      122.8       14.8       18.0       13.4     1014.6       15.8       14.5        0.0        0.0        0.0       0.00       13.1       0.71       0.00        0.0
5:22              186        4.8         91       14.8      122.8       14.8       18.0       13.4     1014.5       15.8       14.5        0.0        0.0        0.0       0.00       13.2       0.71       0.00        0.0
5:24              185        6.4         91       14.8      122.8       14.8       18.0       13.4     1014.5       15.8       14.5        0.0        0.0        0.0       0.00       13.4       0.71       0.00        0.0
5:26              185        6.4         91       14.8      122.8       14.8       18.0       13.4     1014.5       15.8       14.5        0.0        0.0        0.0       0.00       13.5       0.71       0.00        0.0
5:28              185        3.2         91       14.8      122.8       14.8       18.0       13.4     1014.6       15.8       14.5        0.0        0.0        0.0       0.00       13.6       0.71       0.00        0.0
5:30              185        4.8         91       14.8      122.8       14.8       18.0       13.3     1014.5       15.8       14.5        0.0        0.0        0.0       0.00       13.7       0.71       0.00        0.0
5:32              185        6.4         91       14.8      122.8       14.8       18.0       13.3     1014.5       15.8       14.5        0.0        0.0        0.0       0.00       13.8       0.75       0.00        0.0
5:34              185        4.8         91       14.8      122.8       14.8       18.0       13.3     1014.6       15.8       14.5        0.0        0.0        0.0       0.00       13.9       0.75       0.00        0.0
5:36              185        6.4         90       14.8      122.8       14.8       17.9       13.2     1014.5       15.8       14.5        0.0        0.0        0.0       0.00       14.0       0.75       0.00        0.0
5:38              185        3.2         90       14.7      122.8       14.7       17.9       13.1     1014.5       15.8       14.5        0.0        0.0        0.0       0.00       14.1       0.75       0.00        0.0
5:40              185        4.8         90       14.7      122.8       14.7       17.9       13.1     1014.7       15.8       14.5        0.0        0.0        0.0       0.00       14.2       0.75       0.00        0.0
5:42              185        3.2         90       14.7      122.8       14.7       17.9       13.1     1014.6       15.8       14.5        0.0        0.0        0.0       0.00       14.3       0.75       0.00        0.0
5:44              185        4.8         91       14.7      122.8       14.7       17.9       13.2     1014.6       15.8       14.5        0.0        0.0        0.0       0.00       14.4       0.75       0.00        0.0
5:46              185        4.8         91       14.7      122.8       14.7       17.9       13.2     1014.6       15.8       14.5        0.0        0.0        0.0       0.00       14.5       0.78       0.00        0.0
5:48              185        4.8         91       14.7      122.8       14.7       17.9       13.2     1014.7       15.8       14.5        0.0        0.0        0.0       0.00       14.7       0.78       0.00        0.0
5:50              185        3.2         91       14.6      122.8       14.6       17.8       13.2     1014.7       15.8       14.5        0.0        0.0        0.0       0.00       14.8       0.78       0.00        0.0
5:52              185        4.8         91       14.6      122.8       14.6       17.8       13.2     1014.6       15.8       14.5        0.0        0.0        0.0       0.00       14.9       0.78       0.00        0.0
5:54              185        3.2         91       14.6      122.8       14.6       17.8       13.2     1014.8       15.8       14.5        0.0        0.0        0.0       0.00       15.0       0.78       0.00        0.0
5:56              186        3.2         91       14.6      122.8       14.6       17.8       13.2     1014.9       15.8       14.5        0.0        0.0        0.0       0.00       15.0       0.78       0.00        0.0
5:58              185        3.2         91       14.6      122.8       14.6       17.8       13.2     1014.9       15.8       14.5        0.0        0.0        0.0       0.00       15.1       0.78       0.00        0.0
6:00              185        0.0         91       14.6      122.8       14.6       17.8       13.2     1015.0       15.8       14.5        0.0        0.0        0.0       0.00       15.2       0.78       0.00        0.0
6:02              185        4.8         91       14.7      122.8       14.7       17.9       13.2     1015.0       15.8       14.5        0.0        0.0        0.0       0.00       15.2       0.82       0.00        0.0
6:03              185        3.2         91       14.7      122.8       14.7       17.9       13.2     1015.0       15.8       14.5        0.0        0.0        0.0       0.00       15.3       0.82       0.00        0.0
6:05              185        4.8         91       14.7      122.8       14.7       17.9       13.2     1014.9       15.8       14.5        0.0        0.0        0.0       0.00       15.3       0.82       0.00        0.0
6:08              185        4.8         91       14.7      122.8       14.7       17.9       13.3     1015.0       15.8       14.5        0.0        0.0        0.0       0.00       15.4       0.82       0.00        0.0
6:10              186        4.8         91       14.7      122.8       14.7       17.9       13.3     1015.1       15.8       14.5        0.0        0.0        0.0       0.00       15.6       0.82       0.00        0.0
6:12              186        6.4         91       14.8      122.8       14.8       18.0       13.3     1015.1       15.8       14.5        0.0        0.0        0.0       0.00       15.7       0.82       0.00        0.0
6:14              186        4.8         91       14.8      122.8       14.8       18.0       13.3     1015.1       15.8       14.5        0.0        0.0        0.0       0.00       15.8       0.82       0.00        0.0
6:16              186        6.4         91       14.8      122.8       14.8       18.0       13.4     1015.1       15.8       14.5        0.0        0.0        0.0       0.00       15.9       0.85       0.00        0.0
6:17              186        4.8         91       14.9      122.8       14.9       18.1       13.4     1015.1       15.8       14.5        0.0        0.0        0.0       0.00       16.1       0.85       0.00        0.0
6:20              192        3.2         91       14.9      122.8       14.9       18.2       13.5     1015.1       15.8       14.5        0.0        0.0        0.0       0.00       16.2       0.85       0.00        0.0
6:22              192        6.4         91       15.0      122.8       15.0       18.2       13.5     1015.1       15.8       14.5        0.0        0.0        0.0       0.00       16.3       0.85       0.00        0.0
6:24              192        4.8         91       15.0      122.8       15.0       18.2       13.5     1015.1       15.8       14.5        0.0        0.0        0.0       0.00       16.4       0.85       0.00        0.0
6:26              192        3.2         91       15.1      122.8       15.1       18.3       13.6     1015.1       15.8       14.5        0.0        0.0        0.0       0.00       16.5       0.85       0.00        0.0
6:28              193        4.8         91       15.1      122.8       15.1       18.3       13.7     1015.1       15.8       14.5        0.0        0.0        0.0       0.00       16.6       0.85       0.00        0.0
6:30              193        3.2         91       15.2      122.8       15.2       18.4       13.7     1015.1       15.8       14.5        0.0        0.0        0.0       0.00       16.7       0.85       0.00        0.0
6:32              193        6.4         91       15.2      122.8       15.2       18.4       13.8     1015.2       15.8       14.5        0.0        0.0        0.0       0.00       16.9       0.88       0.00        0.0
6:34              195        6.4         91       15.3      122.8       15.3       18.5       13.8     1015.2       15.8       14.5        0.0        0.0        0.0       0.00       17.0       0.88       0.00        0.0
6:36              197        4.8         91       15.3      122.8       15.3       18.5       13.8     1015.1       15.8       14.5        0.0        0.0        0.0       0.00       17.1       0.88       0.00        0.0
6:38              198        4.8         91       15.3      122.8       15.3       18.5       13.9     1015.1       15.8       14.5        0.0        0.0        0.0       0.00       17.2       0.88       0.00        0.0
6:40              204        8.0         91       15.3      122.8       15.3       18.5       13.9     1015.1       15.8       14.5        0.0        0.0        0.0       0.00       17.4       0.88       0.00        0.0
6:42              205        6.4         90       15.3      122.8       15.3       18.5       13.7     1015.2       15.8       14.5        0.0        0.0        0.0       0.00       17.5       0.88       0.00        0.0
6:44              206        6.4         90       15.4      122.8       15.4       18.5       13.8     1015.2       15.8       14.5        0.0        0.0        0.0       0.00       17.7       0.88       0.00        0.0
6:46              213        8.0         90       15.4      122.8       15.4       18.5       13.8     1015.2       15.8       14.5        0.0        0.0        0.0       0.00       17.8       0.91       0.00        0.0
6:48              215        8.0         90       15.4      122.8       15.4       18.5       13.8     1015.2       15.8       14.5        0.0        0.0        0.0       0.00       18.0       0.91       0.00        0.0
6:50              215        4.8         90       15.4      122.8       15.4       18.5       13.8     1015.3       15.8       14.5        0.0        0.0        0.0       0.00       18.2       0.91       0.00        0.0
6:52              215        4.8         90       15.4      122.8       15.4       18.6       13.8     1015.3       15.8       14.5        0.0        0.0        0.0       0.00       18.2       0.91       0.00        0.0
6:54              215        1.6         90       15.5      122.8       15.5       18.6       13.9     1015.3       15.8       14.5        0.0        0.0        0.0       0.00       18.3       0.91       0.00        0.0
6:56              216        4.8         90       15.6      122.8       15.6       18.7       13.9     1015.2       15.8       14.5        0.0        0.0        0.0       0.00       18.4       0.91       0.00        0.0
6:58              217        4.8         90       15.6      122.8       15.6       18.7       14.0     1015.3       15.8       14.5        0.0        0.0        0.0       0.00       18.6       0.91       0.00        0.0
7:00              218        8.0         89       15.7      122.8       15.7       18.7       13.9     1015.3       15.8       14.5        0.0        0.0        0.0       0.00       18.8       0.91       0.00        0.0
7:02              219        4.8         89       15.7      122.8       15.7       18.8       13.9     1015.3       15.8       14.5        0.0        0.0        0.0       0.00       18.9       0.93       0.00        0.0